sat.trackr.live / text

‹ back to catalog

STARLINK-36321

NORAD 68046 · 2026-041G

PAYLOAD ACTIVE UNKNOWN

§ Identity

Operator
Country
US
Launch date
2026-03-02
Launch site
AFETR
Launch vehicle
Mass (kg)
RCS (m²)

Purposes: comms

External: N2YO · Heavens-Above · Gunter

§ Orbital elements

Epoch: 2026-05-25T04:00:03.998880Z

Period
93.85 min
Inclination
53.1604°
Eccentricity
0.0000838
Mean motion
15.34358449 rev/d
Perigee alt
462.3 km
Apogee alt
463.4 km
Semi-major
6,841.0 km
B*
1.7655e-3
RAAN
54.7367°
Arg perigee
78.4268°
Mean anomaly
9.2225°
Rev number
585

§ Raw data

STARLINK-363211 68046U 26041G   26145.16671295  .00059669  00000+0  17655-2 0  99922 68046  53.1604  54.7367 0000838  78.4268   9.2225 15.34358449  5855

JSON: /api/v1/satellites/68046 · /tle

For live sub-satellite position, see the globe view (requires WebGL).

§ Visibility from observer

Set your observer location to see the next 7 days of passes ≥ 10°. The values pass through the URL so the page stays shareable.

No JS? Fill the form by hand. The geolocation button needs JavaScript.